This is the latest recevied weather packets stored in our database for station/object M0XZS-2. If no packets are shown the sender has not sent any weather packets the latest 10 day(s).
| Time | Temp. | Humidity | Pressure | Rain* | Wind** | Luminosity | Snow |
|---|---|---|---|---|---|---|---|
| 1777651655 | 30.56° C | 24% | 1019.9 hPa | - | - | - | - |
| 1777650755 | 31.11° C | 24% | 1020 hPa | - | - | - | - |
| 1777649855 | 31.67° C | 24% | 1020.2 hPa | - | - | - | - |
| 1777648954 | 31.67° C | 24% | 1020.3 hPa | - | - | - | - |
| 1777648054 | 31.67° C | 24% | 1020.4 hPa | - | - | - | - |
| 1777647154 | 31.67° C | 24% | 1020.5 hPa | - | - | - | - |
| 1777646256 | 31.67° C | 23% | 1020.8 hPa | - | - | - | - |
| 1777645355 | 31.67° C | 23% | 1020.9 hPa | - | - | - | - |
| 1777644455 | 32.22° C | 23% | 1020.9 hPa | - | - | - | - |
| 1777643555 | 32.22° C | 24% | 1021.1 hPa | - | - | - | - |
| 1777642655 | 32.22° C | 23% | 1021.3 hPa | - | - | - | - |
| 1777641755 | 33.33° C | 23% | 1021.6 hPa | - | - | - | - |
| 1777640855 | 31.67° C | 25% | 1021.8 hPa | - | - | - | - |
| 1777639955 | 31.11° C | 26% | 1021.9 hPa | - | - | - | - |
| 1777639055 | 31.11° C | 26% | 1022.1 hPa | - | - | - | - |
| 1777638154 | 30.56° C | 27% | 1022.1 hPa | - | - | - | - |
| 1777637254 | 30.56° C | 27% | 1022.3 hPa | - | - | - | - |
| 1777636354 | 30° C | 27% | 1022.5 hPa | - | - | - | - |
| 1777635454 | 28.89° C | 26% | 1022.6 hPa | - | - | - | - |
| 1777634554 | 28.33° C | 29% | 1022.6 hPa | - | - | - | - |
| 1777632753 | 27.22° C | 30% | 1022.8 hPa | - | - | - | - |
| 1777631853 | 26.67° C | 31% | 1023 hPa | - | - | - | - |
| 1777630953 | 25.56° C | 32% | 1023.1 hPa | - | - | - | - |
| 1777630053 | 25° C | 33% | 1023.3 hPa | - | - | - | - |
| 1777629153 | 23.89° C | 33% | 1023.4 hPa | - | - | - | - |
* Rain since midnight (hover to see other rain measurements)
** Current wind speed in m/s (hover to see current wind gust speed)